Location: Unspecified
(43.4354°N, 0.0000°E)
Time: 11:39:43
(UTC+00:00)

Transit 2A - Pass Details

Date: 20 June 2019
Orbit: 595 x 964 km, 66.7° (Epoch: 21 July)

Event Time Altitude Azimuth Distance (km) Brightness Sun altitude
Rises 06:50:50 0° 334° (NNW) 3,546 9.3 24.6°
Reaches altitude 10° 06:56:35 10° 16° (NNE) 2,495 9.1 25.6°
Maximum altitude 06:57:12 10° 23° (NNE) 2,470 9.2 25.7°
Drops below altitude 10° 06:57:48 10° 29° (NNE) 2,468 9.3 25.8°
Sets 07:03:09 0° 73° (ENE) 3,269 10.5 26.8°
